Theta_e
333 334 334 335 335 335 335 333 334 332 332 338 337 337 336 334 335 335 337 336 335 334 331 333 333 332 332 333 334 332 332 333 332 336 339 339 339 340 341 342 342 341 341 341 339 337 335 333 327 325 325 325 326 326 326 326 326 324 323 320 318 317 317 316 315 315 314 313 313 312 311 313 315 315 314 311 311 317 325 327 325 328 335 339 339 341 341 338 336 330 322 318 316 316 327 329 330
334 335 334 334 334 334 332 330 335 335 335 339 337 337 336 333 333 338 341 337 335 333 330 332 333 332 331 331 331 331 333 333 332 335 338 338 339 340 340 342 342 341 341 342 342 340 339 338 332 327 325 326 326 327 327 327 326 325 325 322 319 318 317 316 315 314 314 313 313 313 310 311 314 314 314 309 311 325 333 335 335 338 339 340 341 341 341 339 336 330 320 317 317 318 326 330 332
333 333 333 334 332 331 330 330 335 336 337 339 337 336 335 336 335 336 337 333 332 330 332 333 332 332 331 332 331 331 334 334 335 337 338 339 340 340 341 342 341 340 340 341 342 341 340 339 338 332 327 326 326 327 328 328 327 326 326 323 321 321 320 319 317 317 315 314 313 314 312 309 312 313 313 309 317 332 335 336 338 339 340 340 341 341 341 340 336 330 322 317 319 320 325 329 330
333 332 332 332 331 330 330 332 334 335 336 338 337 335 336 339 338 334 332 329 330 330 332 332 332 331 331 333 330 330 332 334 336 337 338 338 339 340 340 341 341 340 341 342 341 341 340 340 340 337 331 328 328 328 328 328 328 327 327 325 323 323 322 320 318 318 317 315 314 314 314 310 310 313 312 309 321 334 335 337 338 339 340 340 341 341 341 339 338 332 323 318 318 319 323 327 325
332 331 332 331 331 329 331 333 332 334 335 338 336 334 338 339 338 334 329 329 330 330 331 332 333 331 330 331 329 331 333 334 336 337 338 338 339 339 340 340 340 341 342 342 342 342 342 342 341 340 335 331 331 332 330 329 329 328 328 326 324 324 322 320 319 319 317 317 315 314 316 314 309 313 312 309 322 334 336 338 339 339 340 340 341 341 341 340 339 334 325 319 318 317 319 325 322
330 331 330 329 329 327 330 333 333 333 334 338 336 332 335 334 332 331 328 328 329 330 331 331 332 331 331 332 332 334 334 334 336 336 337 338 338 339 340 340 339 340 340 341 342 342 343 343 343 342 338 335 334 334 333 331 330 330 329 327 325 325 324 322 319 319 317 317 317 314 318 317 310 312 312 308 320 332 336 339 339 340 340 340 341 341 341 340 339 336 329 321 319 318 318 322 321
330 330 328 328 327 327 331 333 333 334 331 332 334 332 332 330 328 329 329 329 329 330 330 331 330 332 332 331 334 335 335 335 335 336 337 337 337 338 339 340 339 339 338 339 341 341 341 341 342 343 340 337 336 336 336 335 333 331 330 328 327 326 326 322 319 319 317 317 318 314 319 321 313 313 315 312 319 330 335 339 339 340 341 340 340 341 340 339 339 338 332 325 320 320 318 319 318
330 328 326 328 329 328 331 331 331 333 331 328 328 329 329 328 327 330 331 328 329 329 330 330 329 333 332 330 333 334 335 334 335 336 336 336 337 338 339 339 339 339 338 338 340 340 339 339 340 342 341 340 339 338 338 337 336 334 332 330 328 327 325 322 320 319 317 317 317 314 320 326 316 313 321 321 321 326 331 335 339 340 340 340 340 340 340 340 339 337 334 328 322 321 318 317 316
329 327 326 328 329 330 330 331 330 330 331 330 328 326 324 326 327 329 332 328 328 327 327 328 327 332 332 331 333 333 333 333 335 335 335 336 336 336 337 338 339 339 338 338 339 339 338 338 338 340 342 342 340 340 340 339 338 337 334 331 329 328 326 322 320 319 317 317 316 313 321 330 321 314 323 327 323 325 326 327 334 339 339 340 340 340 339 339 339 337 335 330 324 321 319 317 315
327 326 326 328 328 331 331 330 329 328 330 328 325 324 323 326 327 327 330 329 328 327 326 327 328 331 330 330 331 330 330 332 334 335 334 335 335 335 335 336 337 337 338 337 337 338 338 337 337 338 340 342 341 341 341 340 339 338 336 332 330 330 329 324 320 319 318 318 317 314 320 330 326 316 321 329 326 326 327 325 327 334 338 339 340 340 339 339 339 337 335 331 326 321 319 317 315
325 325 326 328 330 331 332 331 329 328 330 326 323 324 325 327 327 326 328 328 327 327 326 327 329 329 330 330 329 327 328 331 333 333 333 334 334 334 334 335 335 336 336 337 336 337 337 337 338 337 338 341 341 341 342 341 339 339 338 334 331 331 331 325 320 319 319 319 319 317 321 329 329 320 318 327 330 328 329 328 326 329 334 337 338 339 339 339 339 337 335 332 328 323 318 317 316
325 325 327 329 330 330 330 330 329 329 330 328 324 324 326 327 328 328 328 328 326 326 326 327 327 328 331 331 328 326 329 331 330 330 332 333 333 332 333 334 334 335 335 336 336 336 336 337 337 337 338 338 340 341 342 341 340 340 341 337 332 331 332 328 321 320 320 319 319 321 323 327 330 325 317 323 330 330 331 330 329 329 329 332 335 337 339 339 339 337 336 333 331 327 319 316 315
324 324 329 330 327 328 329 328 328 327 330 329 324 324 326 326 327 327 326 327 325 327 327 326 326 327 330 330 327 326 328 327 326 328 331 332 332 332 333 333 333 333 334 334 334 335 336 336 336 337 337 337 338 339 340 341 341 340 341 339 333 330 332 331 324 320 320 321 320 322 324 326 328 327 319 318 326 330 332 332 331 331 330 330 331 333 336 338 338 338 337 335 333 330 322 316 316
323 322 328 329 325 329 328 327 327 327 330 328 324 324 326 325 325 325 326 328 326 326 327 325 326 329 330 329 324 322 323 323 324 327 329 331 332 331 332 332 332 332 332 332 333 334 334 335 335 336 336 337 337 338 339 341 341 340 341 339 335 331 331 331 327 321 321 322 321 321 324 326 326 326 320 315 321 328 332 333 332 332 332 331 331 329 331 334 337 338 338 336 334 331 324 317 316
323 322 326 328 325 327 327 327 327 328 330 327 324 325 325 325 325 325 326 327 325 324 325 325 326 327 326 324 318 315 318 321 322 325 327 330 330 331 331 332 332 332 332 332 332 333 333 333 334 335 335 336 337 337 339 339 340 340 340 340 336 333 331 332 329 323 321 323 324 322 323 326 326 327 324 314 316 325 330 332 333 332 332 333 332 330 328 329 332 336 338 337 335 333 327 319 317
323 323 326 328 326 326 325 325 326 328 328 324 324 324 325 325 325 325 325 326 324 323 324 322 322 322 320 316 311 313 317 319 321 323 326 330 330 331 330 331 331 331 332 332 332 332 332 333 333 334 334 335 335 336 337 338 338 338 340 340 338 335 333 332 330 325 322 324 325 324 322 324 325 327 327 318 313 321 328 330 332 332 332 332 332 332 330 328 328 332 337 337 336 334 330 324 319
323 324 326 327 326 325 325 325 325 327 328 324 323 324 325 325 325 326 325 325 321 320 320 317 318 318 314 311 311 314 317 318 321 323 327 330 330 330 330 330 330 330 330 330 330 330 331 332 332 333 333 333 334 334 335 336 337 337 338 338 338 336 335 333 330 326 323 323 326 326 324 323 323 324 326 324 316 316 323 328 331 331 331 332 332 332 332 331 329 329 333 336 336 335 333 329 322
323 325 326 326 326 325 325 326 323 323 325 323 322 323 324 325 325 325 325 324 320 319 316 315 316 314 311 310 313 315 317 319 322 324 327 327 327 328 327 326 327 327 327 327 327 327 329 330 330 331 331 331 332 333 333 334 335 335 336 336 337 336 335 334 330 328 325 324 325 327 327 324 323 322 323 325 323 318 318 321 327 330 330 330 331 332 331 332 331 329 330 333 335 336 334 332 325
323 324 325 325 325 322 321 322 320 320 323 323 321 322 323 324 323 323 325 325 321 319 316 316 315 311 311 313 314 316 318 321 322 324 325 324 323 323 322 322 323 323 324 325 325 324 325 327 328 328 328 328 328 330 331 332 333 334 335 335 336 335 335 334 331 330 328 325 324 326 328 327 325 324 322 323 324 324 322 320 322 325 326 327 328 330 331 331 332 331 329 329 332 335 336 334 327
322 323 325 324 322 321 318 318 319 319 321 322 321 322 322 322 322 323 325 323 318 313 312 313 310 308 311 313 314 317 319 322 322 322 321 320 319 318 318 318 319 319 320 320 321 322 323 324 325 325 326 326 325 327 328 329 330 332 333 333 334 334 334 334 331 330 329 327 325 325 326 328 327 324 323 322 323 324 325 325 324 324 324 324 325 326 329 330 330 332 331 329 329 333 336 335 329
321 322 324 321 319 321 319 318 321 320 321 322 321 322 322 321 322 321 323 324 317 307 304 306 305 305 309 312 314 316 319 321 320 320 319 317 317 316 316 316 315 316 316 318 319 321 322 323 323 324 324 325 325 325 325 326 326 328 330 331 331 332 333 333 331 329 329 328 327 326 325 326 327 325 322 321 320 321 322 324 325 326 326 325 325 325 326 328 329 330 332 330 330 331 334 336 332
320 320 320 319 317 320 319 319 322 321 322 321 320 322 322 319 316 315 318 319 311 303 301 303 304 305 308 310 313 315 318 319 318 318 317 316 315 315 315 315 315 315 316 317 318 319 320 321 321 322 322 323 324 323 323 323 323 324 326 328 328 329 330 331 330 328 329 330 330 329 327 326 326 325 324 321 319 318 319 319 320 322 323 324 324 325 325 326 328 328 330 331 330 331 332 334 334
319 319 317 318 318 318 319 319 321 321 322 321 320 321 320 316 312 309 309 306 302 301 302 304 304 305 307 309 312 315 316 315 315 315 314 314 314 313 314 314 315 315 315 315 316 317 318 319 320 320 321 321 322 322 322 322 323 323 323 324 325 325 326 328 329 330 332 333 333 333 331 329 327 325 324 324 322 319 317 317 317 318 318 319 319 321 323 324 327 327 328 330 331 330 330 333 335
319 319 317 317 318 318 319 319 319 320 320 320 320 320 317 316 312 307 304 300 300 301 302 304 304 305 308 310 311 311 311 310 310 310 310 310 311 311 311 312 312 313 314 314 315 315 316 318 318 319 319 320 321 321 321 321 322 323 324 323 323 323 323 324 326 329 330 329 332 334 333 332 330 328 326 325 325 323 321 318 318 318 318 318 317 317 317 319 323 327 329 329 331 330 330 333 335
318 319 316 316 318 317 318 318 318 319 319 319 319 317 314 314 311 305 302 300 300 301 302 303 305 307 309 309 307 307 308 308 307 307 308 308 308 309 310 311 312 312 314 314 314 314 315 315 316 317 318 319 319 320 320 320 321 321 323 324 323 323 323 323 323 324 325 325 327 330 333 334 333 332 331 329 326 325 324 322 319 320 321 320 318 316 315 315 317 322 328 330 330 330 330 332 333
316 317 315 316 316 316 317 318 319 318 318 319 318 314 312 312 311 306 301 300 300 302 303 303 306 308 307 305 305 305 306 306 306 306 306 307 308 310 311 311 311 312 312 312 313 313 314 313 314 315 316 317 318 318 319 319 320 321 322 323 324 324 324 323 322 322 322 323 324 326 328 331 332 333 333 333 331 327 324 325 323 321 322 322 320 317 315 314 314 316 323 329 330 329 329 330 332
314 316 315 316 316 314 316 317 317 318 317 318 317 314 312 313 314 308 301 299 300 302 302 303 306 305 302 303 303 304 304 304 304 305 307 308 309 310 310 310 310 310 310 310 311 312 312 312 313 313 314 315 316 317 317 318 319 320 321 322 322 323 323 323 323 323 322 322 323 324 324 326 329 331 332 333 333 331 326 324 324 323 322 322 322 319 317 316 315 314 318 326 330 329 329 329 330
311 314 314 313 313 311 313 316 317 317 318 317 317 315 311 311 311 306 301 299 300 301 301 301 303 300 299 300 301 302 302 302 303 305 307 307 307 307 307 307 307 307 307 308 309 309 310 311 312 312 312 313 314 315 316 316 317 318 318 319 319 321 322 323 324 324 323 323 322 322 323 323 325 327 330 331 332 333 331 326 323 324 324 323 323 321 319 318 317 316 315 321 328 330 329 327 328
309 311 312 313 313 312 312 316 317 316 318 316 317 318 311 307 305 302 300 298 298 299 297 296 297 296 296 297 297 299 299 300 303 304 304 303 302 302 303 303 303 304 305 305 306 307 309 310 311 311 311 312 313 314 314 315 316 316 317 318 319 321 322 323 324 324 324 324 323 323 323 324 324 326 329 330 331 331 332 330 326 326 325 324 324 322 320 320 319 319 316 317 323 329 330 328 327
309 309 311 313 315 316 311 313 316 315 317 315 317 320 311 304 303 301 300 298 298 296 292 291 291 292 293 293 294 295 296 299 301 301 299 299 300 300 300 300 300 301 302 302 303 305 306 308 308 309 310 311 311 312 313 314 315 315 316 317 319 320 321 322 323 324 324 323 323 323 324 325 326 327 329 330 331 331 331 331 329 329 328 326 325 324 322 322 322 322 320 316 317 324 329 329 328
311 309 310 312 314 318 311 308 313 316 315 313 316 319 309 302 300 299 299 299 299 294 288 288 288 289 291 291 292 293 294 296 296 296 296 297 298 298 299 298 298 299 300 301 302 302 304 305 306 307 308 310 310 311 312 313 313 314 315 316 317 318 318 320 321 321 322 322 322 323 323 324 325 326 328 329 330 330 330 330 330 330 329 327 326 326 325 325 325 325 325 321 315 318 326 329 328
313 309 311 311 311 318 312 304 309 316 315 311 315 317 307 299 297 296 296 298 297 292 287 287 286 287 288 289 290 291 292 292 293 294 295 295 296 297 296 296 297 298 299 299 300 301 302 303 304 305 307 308 309 310 311 312 312 313 314 314 314 315 316 317 319 319 319 320 321 321 322 322 324 325 327 328 329 330 329 328 329 329 329 328 327 327 329 328 328 328 328 327 320 315 320 327 328
311 309 311 311 311 315 311 306 305 310 314 311 312 313 304 297 294 293 293 294 294 290 287 286 285 285 286 288 289 289 291 292 293 294 294 293 294 294 295 295 296 296 298 298 300 300 301 303 303 304 306 307 308 309 310 311 311 312 312 313 313 314 315 316 317 317 317 319 319 320 320 321 322 323 325 326 326 327 328 327 326 327 328 328 327 328 329 329 328 329 329 329 326 318 316 323 328
309 308 309 308 310 311 312 310 304 306 314 312 308 305 299 295 292 291 291 291 290 288 286 285 284 284 284 286 287 288 289 291 292 292 292 292 292 293 293 294 294 295 297 297 298 299 300 301 302 304 305 305 307 308 309 310 310 311 311 312 312 312 314 314 314 315 316 317 318 318 319 320 320 321 322 322 321 322 322 323 323 324 326 328 328 328 328 328 327 327 328 329 329 324 318 318 323
310 309 309 307 308 308 311 313 305 306 315 311 305 301 295 293 291 290 289 288 288 286 285 284 283 283 283 284 285 286 287 288 288 289 290 291 291 292 292 293 294 294 295 296 297 298 299 300 301 302 303 305 306 307 308 308 308 309 310 310 311 311 312 313 313 314 314 315 315 316 316 317 318 318 318 318 318 318 317 317 319 320 323 325 326 327 326 325 325 325 326 326 328 328 325 322 322
310 310 311 310 309 308 310 311 305 305 312 308 304 301 294 291 290 289 288 287 286 285 284 283 282 282 282 283 284 284 285 285 286 287 289 290 291 291 292 292 293 293 294 295 296 297 297 298 299 300 301 303 304 306 307 308 308 308 308 309 310 310 310 311 312 312 312 312 312 312 313 314 314 315 315 315 315 315 315 315 315 316 318 320 321 322 322 320 320 321 322 324 324 325 326 326 326
309 309 310 310 309 309 308 308 303 303 309 304 298 297 292 290 289 287 288 286 285 285 283 283 282 281 281 282 282 282 283 284 285 287 288 289 290 290 291 291 292 293 293 294 295 295 296 296 297 298 299 300 301 303 305 307 308 308 308 308 308 308 308 308 309 310 310 310 309 310 311 311 312 312 312 313 313 313 313 313 313 313 314 315 316 316 316 316 315 316 318 320 321 319 320 323 325
309 308 310 308 308 310 306 305 303 302 308 301 294 296 291 289 288 286 286 285 284 283 283 282 281 280 280 280 281 281 282 284 285 287 287 288 289 289 290 291 291 292 292 293 293 293 294 294 295 296 297 298 299 300 301 303 304 304 305 304 304 304 305 306 306 306 307 307 308 308 309 310 310 311 311 311 311 312 312 312 312 312 312 312 312 312 312 313 313 313 314 316 316 316 315 316 319
310 308 308 308 308 308 305 304 303 304 308 301 296 297 292 287 287 285 284 283 282 282 281 281 280 280 279 279 280 282 283 284 285 286 287 287 287 288 288 289 289 290 290 290 291 291 292 293 293 294 294 295 296 296 297 298 298 299 300 300 301 301 302 302 302 302 304 305 306 307 308 308 309 309 309 310 310 311 311 311 311 311 312 311 311 311 311 311 311 311 312 313 313 314 313 313 314
308 307 308 309 307 306 306 304 302 302 304 301 298 297 291 287 286 284 284 283 282 281 280 280 279 279 278 279 280 282 283 283 284 284 285 285 286 286 287 287 287 288 288 289 289 289 290 290 291 291 292 293 293 294 294 294 294 295 296 297 298 298 299 299 299 300 302 303 304 305 306 306 307 308 308 308 308 309 309 310 310 310 310 311 310 310 310 311 310 310 310 310 311 312 312 312 312
303 305 308 309 307 307 307 303 302 302 301 299 300 302 297 291 289 287 284 283 282 281 281 280 279 278 278 279 279 280 281 282 282 283 283 284 284 284 284 285 286 286 287 286 286 287 287 287 288 288 289 290 291 291 292 293 294 294 295 296 297 298 299 300 301 301 300 301 301 302 302 302 304 306 306 307 307 307 308 308 309 309 309 309 309 309 309 310 309 309 309 309 309 310 310 310 311
303 304 306 307 308 307 306 303 303 306 304 301 303 310 305 294 291 289 285 284 283 282 281 280 279 278 278 278 278 279 280 280 281 281 281 282 282 282 283 283 284 284 284 284 284 284 284 285 286 286 287 288 288 288 289 291 292 293 294 295 296 296 296 296 296 295 295 296 296 296 297 298 300 302 303 305 305 305 306 307 307 308 308 308 308 308 308 308 309 309 309 308 308 308 308 308 309
305 302 301 303 305 305 306 305 305 308 307 302 302 309 308 297 292 289 285 284 283 282 281 280 279 278 278 278 278 278 279 280 280 280 281 281 281 282 282 282 282 282 282 282 282 283 283 284 284 285 285 286 286 286 287 288 289 289 290 290 290 290 290 289 288 288 289 290 291 291 293 294 295 298 299 301 302 303 304 305 305 306 306 306 307 307 307 308 308 308 308 308 308 307 307 307 308
304 300 300 301 303 304 306 305 305 307 306 302 301 304 307 304 296 288 286 285 283 282 281 280 279 278 277 277 278 278 279 279 280 280 280 281 281 281 281 281 281 281 281 282 282 282 282 283 283 284 284 284 284 285 285 286 286 286 286 287 287 286 286 285 285 286 287 287 288 289 290 291 292 293 294 296 297 299 301 302 303 304 304 305 305 305 306 306 307 307 307 307 307 307 307 307 306
301 298 299 300 301 303 305 305 305 305 304 305 303 302 305 307 296 286 286 287 285 282 281 280 280 278 278 277 277 278 278 279 279 279 280 280 280 280 280 280 280 281 281 281 281 282 282 282 283 283 283 284 283 284 284 284 285 285 285 285 285 285 285 285 285 285 286 286 287 287 288 289 289 290 290 291 292 294 296 298 299 301 302 303 303 303 304 304 305 306 306 306 306 306 306 306 306
298 297 299 299 299 301 304 305 305 305 305 306 304 302 305 307 296 288 288 290 288 284 281 280 280 278 278 277 277 277 277 278 278 279 279 279 279 279 280 280 280 280 280 281 281 281 282 282 283 283 283 283 283 283 284 284 284 284 285 285 285 285 285 285 285 286 286 286 286 286 287 287 287 288 288 289 289 290 291 293 294 297 298 300 301 302 302 303 303 304 304 305 305 305 305 304 305
295 297 301 303 303 304 305 305 304 305 306 303 302 303 304 306 298 289 288 288 286 283 281 281 280 278 278 277 277 277 277 277 278 278 278 279 279 279 279 280 280 280 280 281 281 281 282 282 282 282 282 283 283 283 283 283 284 284 284 284 284 284 285 285 285 286 286 286 286 286 286 286 286 286 286 287 287 287 288 288 289 291 293 295 297 299 301 301 302 302 302 303 303 304 304 304 304
296 301 304 304 304 304 305 305 303 305 305 301 300 300 302 306 299 288 285 283 283 284 282 281 280 279 278 277 277 276 276 277 277 278 278 278 279 279 279 280 280 280 281 281 281 281 282 282 282 282 282 282 283 283 283 283 283 283 283 283 283 283 284 284 284 284 285 285 285 285 285 286 286 286 286 286 286 287 286 287 287 287 288 289 291 293 296 298 299 300 301 301 302 302 303 303 304
299 302 303 304 304 303 304 304 302 303 302 297 298 301 302 303 293 284 283 282 282 283 282 281 280 279 277 277 277 276 277 277 277 278 278 278 279 279 280 280 280 281 281 281 281 281 282 282 282 282 282 282 282 282 282 283 283 283 283 283 283 283 283 283 283 283 283 283 284 284 285 285 285 285 286 286 286 286 286 286 286 286 286 286 287 287 289 292 295 297 299 299 300 301 301 301 302
299 301 303 304 304 303 303 302 300 301 299 295 297 300 301 301 290 281 281 281 280 281 281 281 280 278 277 277 277 277 277 278 278 278 279 279 279 279 280 280 280 281 281 281 281 281 281 282 282 282 282 282 282 282 282 282 282 282 282 282 282 282 282 282 282 282 282 282 282 283 283 283 284 284 284 285 285 285 285 285 285 286 286 286 286 286 286 287 289 292 294 296 297 299 299 300 300
297 297 300 302 304 305 303 302 302 301 298 296 297 299 303 303 290 280 280 280 279 280 279 280 279 278 278 277 277 277 277 278 278 278 279 279 279 279 279 280 280 280 281 281 281 281 281 281 281 281 281 281 281 281 281 281 281 281 281 281 281 282 282 281 282 281 281 282 282 282 282 282 282 283 283 283 284 284 284 284 285 285 285 286 286 286 286 286 286 287 288 290 292 294 296 298 299
296 294 298 301 301 303 300 298 299 299 299 299 299 299 295 290 283 278 280 280 279 280 279 279 279 278 277 277 277 277 278 278 278 278 279 279 279 279 279 280 280 280 280 280 281 281 281 281 280 281 281 281 281 281 281 281 280 280 280 281 281 281 281 281 281 281 281 281 281 281 281 281 281 282 282 282 283 283 284 284 284 284 285 285 285 286 286 286 286 286 286 287 288 288 291 293 295
297 295 299 296 294 299 300 296 294 296 300 299 300 300 291 286 285 280 279 280 279 279 279 278 278 278 277 277 277 278 278 278 278 278 279 279 279 279 279 280 280 280 280 280 280 280 280 280 280 280 280 280 280 280 280 280 280 280 280 280 280 280 280 280 280 280 280 280 280 280 280 280 281 281 281 282 282 282 282 283 283 284 284 285 285 285 285 285 286 286 286 286 286 286 287 288 289
297 299 297 292 292 297 299 299 297 297 300 299 299 299 296 295 293 282 278 280 279 279 279 278 278 278 277 277 278 278 278 278 278 278 279 279 279 279 279 279 279 280 280 279 280 279 279 280 280 280 280 280 280 280 279 279 279 279 279 279 279 279 279 279 279 279 279 279 279 280 280 280 280 280 280 281 281 281 282 282 282 283 283 284 284 285 285 285 285 285 286 286 286 286 286 286 286
290 293 291 292 297 299 297 299 300 298 299 300 298 295 295 297 294 285 281 281 280 279 279 278 278 278 278 278 278 278 278 278 278 278 279 279 279 279 279 279 279 279 279 279 279 279 279 279 279 279 279 279 279 279 279 279 279 279 278 278 278 278 278 278 278 278 278 279 279 279 279 279 279 279 280 280 280 280 281 281 282 282 282 283 283 284 284 284 285 285 285 285 286 286 286 286 286
288 290 290 290 295 297 296 296 298 298 299 298 297 295 296 294 289 286 284 281 280 280 279 279 279 278 278 279 279 279 278 278 279 279 279 279 279 279 279 279 279 279 279 279 279 279 279 279 279 279 279 278 278 278 278 278 278 278 278 277 277 277 277 277 277 278 278 278 278 278 278 278 278 279 279 279 279 279 280 280 280 281 281 282 282 282 283 283 284 284 284 285 285 285 285 286 286
289 293 293 291 292 292 293 293 292 295 299 298 296 298 298 290 283 282 283 282 281 281 280 279 279 279 280 280 280 280 279 279 279 279 279 279 279 279 279 279 279 279 279 279 279 279 279 279 279 279 278 278 278 278 278 278 278 277 277 277 277 277 277 277 277 277 277 277 277 277 277 278 278 278 278 278 278 279 279 279 279 280 280 280 281 281 281 282 282 283 283 284 284 284 285 285 285
285 288 288 289 291 292 295 294 288 288 294 294 293 297 296 286 281 282 282 282 282 281 280 280 280 280 281 280 280 280 279 279 279 279 279 279 279 279 279 279 279 279 279 279 279 279 279 278 278 278 278 278 278 278 277 277 277 277 277 276 276 276 276 276 276 276 276 276 276 276 277 277 277 277 277 277 278 278 278 278 279 279 279 279 279 280 280 281 281 281 282 282 283 283 284 284 284
Wind_Speed
14 13 13 13 14 11 11 8 2 1 1 1 2 2 3 3 1 0 1 2 1 2 8 8 5 10 5 1 5 8 8 4 1 2 2 2 5 3 5 3 1 2 2 4 7 9 10 12 15 17 17 16 16 14 13 11 10 8 7 6 6 6 6 7 7 7 8 9 10 12 13 15 16 15 14 13 13 13 11 11 13 16 16 15 18 17 14 15 14 11 10 10 12 14 12 11 11
14 14 13 13 13 11 9 6 2 0 1 2 2 3 2 1 1 3 4 5 2 2 6 9 8 10 5 4 6 7 10 8 5 4 3 3 5 2 2 2 1 1 3 4 5 5 6 9 14 18 18 17 17 16 14 12 11 9 7 5 5 5 4 4 5 5 6 7 9 11 13 15 17 16 14 13 14 15 14 14 15 15 15 15 17 17 14 14 13 11 10 11 12 13 12 11 12
16 15 14 14 14 10 7 4 1 2 2 4 2 2 2 3 4 8 8 6 1 4 6 9 8 6 3 4 4 3 4 7 7 6 4 3 4 1 1 2 2 2 2 4 4 3 2 4 10 17 20 19 18 17 15 13 12 10 8 7 6 5 4 4 4 5 6 6 7 10 12 14 17 17 15 15 18 18 17 17 16 16 14 13 15 16 14 13 12 12 11 12 12 12 12 12 13
18 17 16 17 12 6 4 2 1 3 3 2 1 2 3 4 7 9 6 3 2 2 5 8 5 1 1 2 4 4 5 6 8 4 3 4 0 3 0 2 1 1 3 4 6 5 5 6 8 13 18 19 18 17 17 14 12 10 9 8 7 6 6 5 5 6 7 8 8 9 12 13 17 18 17 18 21 20 18 18 17 16 15 15 15 14 15 13 13 13 12 13 13 13 13 13 12
17 19 19 17 9 3 2 1 2 2 3 3 2 2 3 4 5 6 4 2 4 3 4 8 4 1 3 4 4 3 4 4 7 5 5 6 2 2 0 2 2 2 3 6 11 13 13 13 11 12 16 18 18 17 17 16 14 12 10 10 8 8 7 6 6 7 8 9 9 9 11 12 16 18 18 19 23 22 19 18 18 17 17 18 17 15 15 14 13 13 13 12 13 14 14 14 13
14 17 17 12 6 3 2 1 2 1 2 3 3 3 2 2 4 5 7 5 2 5 6 7 4 5 6 8 11 9 6 4 6 6 6 6 3 1 1 1 3 4 3 6 12 16 15 14 12 13 15 16 18 17 16 16 15 14 13 11 10 8 8 7 8 8 10 10 10 10 12 11 14 18 18 20 24 23 20 18 18 18 18 18 18 17 16 16 14 13 13 12 13 14 15 16 14
12 12 10 6 5 3 2 1 1 1 1 2 3 3 1 4 6 6 6 4 1 3 6 6 7 7 6 7 11 13 10 7 8 5 3 4 4 3 2 3 4 5 5 6 9 12 11 11 10 12 13 13 16 18 17 16 16 16 15 12 11 9 9 9 9 9 10 11 9 10 12 11 13 19 18 19 22 24 21 17 17 17 18 18 18 18 17 17 16 14 14 13 12 14 15 16 15
12 9 5 3 3 1 1 1 1 1 1 1 1 2 2 5 5 3 3 1 1 1 2 5 7 4 3 5 6 10 11 9 7 3 1 4 5 3 3 4 5 5 7 7 8 10 7 9 11 12 13 13 15 17 18 17 17 18 17 14 12 10 10 9 10 10 10 10 9 10 12 11 13 19 19 18 20 22 22 18 17 17 18 18 18 19 18 18 17 16 16 13 12 14 15 15 16
13 7 4 3 1 1 1 2 1 0 2 3 1 3 6 6 3 0 1 1 1 4 5 0 2 2 5 9 7 8 9 7 2 2 1 4 5 4 4 4 5 6 7 8 9 10 8 7 9 12 15 16 16 16 18 19 19 18 18 16 13 12 11 11 10 10 10 10 9 10 13 12 13 19 21 18 19 21 22 20 18 17 16 17 19 20 20 19 19 17 16 14 12 14 15 16 17
11 5 3 2 2 2 1 2 1 1 3 2 3 5 7 7 3 1 1 2 3 4 6 5 5 6 8 7 7 9 11 7 0 1 2 4 5 6 6 4 5 6 7 9 9 10 10 9 9 10 15 18 18 18 20 20 20 20 19 18 16 14 13 12 11 10 10 9 9 10 14 14 13 18 22 20 20 21 21 20 19 18 15 16 17 19 22 22 20 18 17 15 14 14 15 17 18
7 2 3 2 1 2 2 2 3 2 3 3 3 3 5 6 1 1 3 4 5 5 5 4 5 9 8 6 9 12 11 7 3 4 3 3 6 7 6 5 6 7 9 9 9 10 11 11 11 11 13 17 18 19 20 20 19 20 21 19 18 16 15 13 11 10 10 9 8 10 13 15 13 16 22 22 20 21 20 20 19 18 17 16 14 15 20 23 22 19 17 17 16 14 15 19 19
3 0 3 2 2 2 1 2 3 3 3 3 2 3 5 3 1 1 4 4 4 8 10 7 2 6 5 4 8 10 8 8 8 9 5 3 6 6 5 6 6 8 9 9 10 11 11 12 12 12 13 15 17 19 19 20 19 20 21 20 19 18 16 14 12 11 10 9 8 9 12 15 14 14 20 24 22 21 20 20 19 18 18 17 15 14 15 19 23 20 18 18 17 14 15 19 21
2 2 4 2 2 1 2 2 1 2 3 2 2 4 5 2 2 1 5 7 6 6 8 9 3 5 4 4 7 9 10 10 11 11 7 2 5 4 5 7 8 9 9 11 12 12 12 13 13 13 14 15 17 19 19 20 21 20 20 19 20 20 17 15 12 12 11 10 9 9 11 13 15 14 18 25 24 22 20 19 19 18 18 17 17 17 14 14 20 22 20 19 18 15 15 19 21
3 4 3 2 1 2 3 2 1 1 3 2 2 4 4 4 4 2 5 7 7 5 4 9 6 7 3 3 7 11 11 10 10 11 9 3 1 2 5 6 8 10 10 11 11 12 12 13 14 14 15 16 16 18 19 20 23 22 21 19 21 22 19 17 13 12 13 11 10 9 11 12 14 14 16 24 27 24 22 19 19 18 18 17 17 18 17 14 16 20 22 20 19 17 15 17 22
5 4 3 2 2 2 2 1 2 3 3 2 3 3 6 6 5 5 6 5 6 4 4 7 7 6 2 1 6 10 9 7 8 9 7 3 3 5 6 5 7 8 8 10 10 12 12 12 13 14 16 16 16 16 17 19 22 21 22 21 20 23 21 18 15 12 13 13 12 11 11 13 14 15 14 21 28 26 23 21 20 18 18 18 17 17 19 17 16 17 20 22 19 18 16 16 21
7 4 3 2 2 2 2 1 2 3 3 2 2 4 7 7 6 7 6 5 8 6 4 6 7 7 6 9 8 8 7 4 5 5 4 1 4 3 4 4 5 6 7 8 9 9 10 11 12 12 13 14 16 16 16 18 21 19 22 22 20 23 23 20 16 12 14 14 14 13 13 13 14 15 14 17 25 27 25 23 22 20 18 19 18 16 17 19 18 16 16 19 20 18 17 16 18
7 3 2 1 2 3 3 3 2 2 3 2 3 3 4 5 8 11 8 8 12 11 12 13 11 12 15 15 10 7 6 2 1 3 3 4 4 3 4 4 4 4 6 8 8 8 7 8 10 10 11 12 13 14 15 15 17 18 18 21 19 21 22 20 17 14 14 14 16 16 15 15 15 16 16 15 20 26 26 25 24 22 20 20 20 18 16 18 19 18 16 16 19 21 19 16 16
6 2 2 2 2 3 3 5 4 3 1 1 4 4 5 4 5 8 8 12 17 16 17 19 16 17 17 14 9 8 5 0 2 3 3 4 4 5 6 7 7 6 7 8 9 10 8 7 8 9 10 11 12 13 14 13 12 13 14 18 18 18 19 20 19 16 15 15 16 18 17 17 17 17 17 17 18 23 26 26 26 25 24 22 22 21 19 17 17 19 19 17 18 20 21 19 16
3 1 2 2 2 2 3 5 4 2 2 2 4 5 6 4 3 5 5 9 15 13 12 15 18 17 14 12 10 8 5 2 5 6 6 7 8 10 11 12 11 10 10 10 12 12 12 10 10 10 10 11 11 11 13 13 11 10 10 14 16 16 16 18 20 17 16 16 17 18 19 20 19 19 19 19 19 21 23 25 26 27 27 26 25 25 23 20 18 18 20 20 19 19 20 21 18
1 1 2 2 2 1 2 4 1 1 2 4 4 6 8 5 4 5 5 9 13 10 7 8 13 13 12 12 11 10 8 6 8 10 11 12 13 15 15 15 15 15 15 15 14 14 14 12 11 11 11 11 11 11 11 11 11 10 9 8 11 15 14 16 20 19 17 17 19 19 20 21 21 21 21 21 21 22 23 24 25 26 27 27 27 27 27 24 22 20 20 21 21 20 20 21 19
1 2 2 1 2 1 1 2 2 1 2 4 5 7 8 8 8 6 5 7 9 9 9 9 11 12 13 12 11 11 9 8 10 11 13 14 14 15 15 16 16 16 17 15 14 14 14 13 13 12 12 12 12 12 11 11 11 11 10 9 8 11 13 17 22 19 18 20 20 21 21 22 23 23 23 22 23 23 24 25 26 27 27 27 27 28 28 27 26 24 21 22 22 22 22 22 21
1 1 1 1 2 2 2 3 3 3 3 4 5 6 5 8 12 12 9 6 4 6 9 13 15 14 14 12 11 10 8 9 10 11 13 14 14 15 14 14 13 14 15 15 14 14 14 14 14 13 13 13 13 13 12 12 12 12 10 10 10 11 8 14 22 20 19 21 22 23 23 23 25 25 25 25 24 25 25 26 27 28 29 29 28 28 29 29 28 27 25 24 24 24 23 25 24
1 1 2 2 0 1 2 5 4 3 4 3 3 6 8 11 12 15 18 13 8 10 13 16 16 15 14 11 10 9 10 12 11 11 13 14 15 16 16 15 14 14 15 16 16 16 15 14 14 13 13 13 12 12 12 12 12 12 12 11 11 13 14 5 14 19 18 19 21 25 25 24 26 26 27 27 27 27 26 26 26 28 29 30 30 30 30 30 30 29 28 27 26 26 24 27 28
2 0 3 3 2 4 4 2 2 2 2 1 4 6 6 9 8 12 19 15 14 16 16 17 16 15 12 11 14 14 14 14 14 14 14 14 16 17 17 17 17 17 16 16 17 17 16 15 15 14 13 13 13 13 12 12 12 13 12 11 12 12 15 13 5 8 11 11 14 21 26 26 26 27 29 30 30 29 29 28 27 27 28 29 30 31 32 32 32 31 30 29 29 28 26 29 31
0 1 2 1 1 3 6 7 6 6 3 2 7 8 9 12 13 14 13 13 16 17 16 17 15 14 13 15 18 17 15 15 14 14 15 15 16 15 15 16 17 17 17 17 18 18 17 17 16 15 14 13 13 14 14 13 12 12 13 12 12 12 13 14 12 11 12 12 11 12 20 24 26 28 29 30 33 32 31 30 29 28 28 28 28 30 32 33 34 33 32 31 30 30 30 30 31
4 6 3 1 2 3 3 6 8 6 3 5 8 10 14 16 13 12 9 12 16 15 16 15 12 13 16 18 19 18 17 16 15 15 15 15 14 14 15 17 18 18 19 19 18 17 18 19 18 16 15 14 13 13 14 14 13 12 13 13 13 13 13 13 13 14 15 15 14 11 12 16 21 26 28 29 32 34 33 33 32 30 29 28 28 28 29 31 34 35 35 34 32 32 33 32 31
4 8 6 3 3 4 3 3 5 4 4 7 8 8 10 8 5 6 8 11 14 15 17 15 13 17 20 19 19 18 18 19 18 15 14 14 15 16 17 17 18 19 19 19 18 18 18 18 18 17 16 14 13 13 13 13 13 12 12 13 14 14 13 14 14 14 15 16 16 14 12 14 15 18 23 28 31 34 35 34 33 32 31 29 29 28 28 29 30 34 37 37 35 34 34 34 33
3 7 4 4 4 4 3 2 4 4 3 7 11 9 5 10 6 7 9 11 12 15 18 18 18 20 20 20 19 19 19 20 19 17 17 18 18 19 18 18 19 19 19 19 20 19 17 16 15 16 15 14 13 13 13 13 12 12 12 13 14 15 15 14 14 13 14 15 16 16 15 15 15 16 19 24 28 33 35 36 34 33 33 31 29 28 28 28 28 30 34 38 39 36 35 35 35
4 5 2 4 5 3 5 3 5 7 4 9 15 7 5 10 7 10 12 12 13 16 20 20 21 21 21 21 21 21 21 20 19 19 20 19 19 19 19 19 19 19 20 20 20 19 17 15 14 13 14 13 12 12 13 13 12 12 12 13 14 15 16 15 15 14 14 14 14 16 15 15 15 15 17 20 24 28 30 34 36 34 33 32 30 28 27 28 28 28 31 36 41 40 37 36 36
3 3 3 1 6 4 5 1 5 7 2 9 13 3 2 7 9 10 9 9 12 17 19 20 21 21 21 21 21 21 21 19 19 19 18 18 18 18 18 18 19 20 20 20 20 18 18 17 15 14 13 12 11 11 11 11 12 12 12 13 13 14 16 16 16 15 14 14 14 14 14 13 13 14 15 16 18 20 20 24 31 33 33 31 29 29 28 27 28 29 30 33 40 43 41 38 36
2 1 2 2 2 3 5 1 5 6 1 6 9 2 2 6 9 9 6 5 10 17 18 18 21 21 20 21 20 21 20 19 18 17 17 17 17 17 18 18 19 20 20 21 21 20 20 19 18 15 13 13 11 9 10 11 12 12 12 12 13 14 14 15 16 15 15 15 15 14 14 13 12 12 13 12 12 13 13 15 23 29 33 31 26 26 27 28 30 30 30 30 35 42 42 40 38
2 1 1 1 3 4 6 2 3 4 1 2 5 2 3 5 10 12 8 8 12 18 17 17 20 20 21 21 20 20 19 18 17 16 17 17 17 18 19 20 21 21 21 21 21 20 20 19 19 16 13 12 11 9 9 10 11 11 11 12 13 13 13 14 15 17 17 16 15 14 13 12 11 11 10 9 7 8 9 11 15 22 29 29 25 23 21 24 29 32 34 32 32 38 42 42 41
3 1 2 1 3 2 3 2 2 2 2 5 3 3 3 4 8 13 11 11 15 18 16 16 18 20 21 20 19 19 18 17 16 17 18 18 19 19 19 20 20 20 20 21 21 21 21 20 19 18 15 14 12 10 8 8 9 10 11 12 13 14 14 15 15 17 17 15 14 13 11 10 9 8 7 5 2 5 9 10 9 11 20 25 26 25 22 21 21 25 31 33 31 32 39 43 43
2 1 1 1 3 2 1 2 3 2 3 3 5 5 5 5 8 13 13 13 16 17 15 14 16 18 20 20 20 20 19 18 18 19 19 19 19 18 18 18 18 19 19 20 20 21 21 20 20 19 16 14 12 11 9 8 8 9 10 10 12 13 14 14 14 14 13 12 12 11 9 8 8 9 6 4 6 5 6 8 8 7 9 17 20 22 23 22 19 18 21 27 31 30 33 39 43
3 2 2 1 1 2 2 3 1 4 4 4 6 7 6 6 8 12 13 13 16 15 13 13 15 17 19 20 21 20 20 20 20 19 18 17 17 17 17 16 16 17 18 18 19 19 19 19 19 18 16 14 12 11 9 7 7 7 8 9 9 11 12 12 12 11 11 12 12 12 11 11 11 12 12 11 11 11 11 12 12 11 7 8 11 13 14 15 15 14 13 16 24 27 30 35 39
6 5 4 4 3 2 3 3 3 3 7 4 4 7 6 6 7 9 11 13 15 14 12 13 14 17 20 20 20 20 19 20 18 17 16 16 16 16 16 16 16 16 17 17 17 17 18 19 18 18 18 16 13 10 8 7 6 6 7 8 8 10 11 10 8 9 11 13 14 13 12 12 12 12 12 13 13 13 14 15 15 14 11 6 3 3 5 7 8 8 9 8 7 13 21 28 33
5 5 4 3 3 3 3 2 4 2 6 3 4 9 6 6 6 7 8 11 14 12 12 13 13 16 19 19 18 18 19 18 16 15 15 14 14 14 14 15 15 15 16 16 17 18 19 19 19 19 20 19 17 15 12 10 9 8 9 10 10 10 10 8 7 8 10 11 13 13 12 11 11 11 11 12 12 13 13 13 15 16 14 12 11 9 7 8 10 9 7 5 3 4 3 10 17
5 5 4 2 2 3 2 0 4 3 4 2 5 8 6 5 5 6 8 10 11 10 10 11 11 13 15 17 17 16 16 15 14 13 14 13 14 14 14 14 14 15 17 17 18 20 20 20 20 21 21 21 21 21 19 17 16 15 15 15 14 12 11 10 10 12 12 11 12 13 13 12 11 11 10 11 11 12 13 13 14 15 15 15 15 14 12 10 10 11 10 8 7 11 14 12 6
4 3 4 1 2 2 2 2 5 5 4 4 5 5 4 4 5 6 8 9 9 9 10 10 10 10 12 15 16 16 15 14 14 14 14 14 14 15 15 15 17 17 18 18 19 19 20 21 21 21 21 21 22 22 22 21 20 19 17 16 15 13 13 13 13 15 14 13 13 14 14 14 12 11 11 10 10 11 12 13 14 14 15 14 14 14 13 12 13 13 13 12 10 11 14 17 15
3 3 3 2 2 1 1 2 4 5 3 5 7 4 2 2 4 5 7 8 9 10 11 11 11 11 12 13 15 15 15 15 15 15 15 15 15 15 16 17 18 17 18 19 20 20 21 22 22 22 21 21 21 21 21 20 19 17 16 14 14 13 12 12 11 13 14 14 15 15 15 16 15 14 13 11 10 10 10 11 12 13 13 13 13 14 14 13 14 15 15 14 13 11 13 16 17
1 2 4 2 2 3 2 0 2 4 5 6 8 2 1 4 4 3 5 6 7 8 9 11 11 11 12 13 14 14 15 15 15 15 15 15 16 17 18 18 18 18 19 21 22 22 23 23 22 22 22 21 21 20 19 17 15 13 12 10 9 9 9 8 8 12 17 18 18 18 18 18 17 16 15 14 13 11 10 9 9 9 10 11 12 12 13 13 13 14 15 16 15 14 14 14 14
1 2 5 5 5 5 2 2 2 4 3 3 6 1 2 3 5 4 4 4 5 6 7 8 8 10 12 13 13 13 13 14 14 15 15 16 17 17 17 18 18 19 21 22 22 22 22 22 22 21 21 21 21 21 20 18 16 15 14 12 12 14 15 15 16 19 22 22 21 21 20 20 18 17 16 16 15 14 12 10 9 7 7 8 9 9 9 9 10 12 14 16 16 15 14 14 13
0 2 3 4 5 4 3 4 3 1 2 3 4 2 3 1 3 5 5 4 4 5 6 6 6 7 10 11 12 12 12 13 14 14 15 15 16 16 17 18 19 20 21 21 21 21 21 21 21 21 21 21 21 21 21 20 20 21 20 19 20 22 22 23 23 23 23 22 21 21 21 21 20 19 18 17 17 16 15 14 12 10 9 7 7 7 7 8 10 11 13 15 16 16 16 16 16
2 1 4 4 5 5 4 4 3 2 1 1 2 3 1 3 2 4 6 5 3 3 3 4 4 5 7 8 9 11 12 12 13 14 14 15 15 16 17 18 19 19 19 18 19 20 20 20 20 20 20 21 22 21 21 21 22 22 22 21 22 22 23 23 21 21 20 20 20 20 20 21 21 21 20 19 19 18 17 16 15 13 12 10 9 8 8 8 8 9 10 12 14 16 17 17 16
1 1 4 4 4 4 3 4 3 0 2 2 3 2 1 4 1 3 5 4 2 3 2 1 2 3 4 6 8 10 11 12 13 13 13 14 14 16 16 17 17 17 17 17 18 19 19 18 19 19 19 20 21 21 21 22 21 21 20 20 21 21 21 20 19 18 18 18 18 19 19 19 20 21 20 20 20 19 18 17 16 15 14 13 12 11 10 9 8 8 9 10 12 13 15 16 16
2 3 4 4 4 4 4 4 3 2 1 3 4 4 2 4 2 3 4 4 3 4 4 2 3 3 3 5 7 9 11 11 12 12 13 13 13 14 14 15 15 15 16 17 17 17 17 17 18 18 19 20 20 21 21 21 20 20 20 20 20 20 19 18 17 17 17 18 18 19 20 20 20 20 20 20 20 20 20 19 18 17 17 16 15 13 12 11 10 9 8 8 10 11 11 12 13
2 4 4 5 5 4 4 2 4 3 2 3 3 4 3 2 2 2 2 1 2 5 4 4 5 5 4 5 7 9 10 10 11 12 12 12 12 13 12 13 14 14 14 14 14 15 16 17 18 18 19 20 20 20 20 21 21 21 22 22 21 21 20 20 19 19 19 19 19 20 21 20 20 20 20 20 20 20 21 21 20 19 18 17 16 15 14 14 13 12 10 8 8 9 11 11 12
3 3 4 4 4 4 4 4 3 2 5 4 4 2 3 3 3 1 3 2 2 3 4 6 7 6 5 6 7 8 9 9 10 10 11 11 11 11 11 11 12 12 12 13 14 15 15 17 17 18 19 20 20 21 21 21 22 22 23 23 23 23 23 23 23 23 23 22 21 21 21 20 20 20 20 20 20 21 21 21 21 20 20 19 18 18 17 16 14 13 12 10 8 7 8 10 11
4 4 5 4 1 3 2 2 0 3 5 3 3 2 1 3 2 2 3 2 2 2 5 8 9 9 8 8 7 7 8 9 9 9 9 9 9 9 9 10 10 11 12 12 14 14 15 17 17 18 19 20 21 21 22 22 22 23 23 24 24 25 25 25 25 25 25 25 24 23 23 22 22 21 21 22 22 22 22 22 21 21 21 20 19 19 18 17 16 14 13 12 10 9 8 7 7
3 4 4 4 2 1 2 2 0 4 3 2 4 2 1 2 0 2 2 3 3 4 7 9 10 11 10 8 7 7 7 8 8 8 8 7 8 8 8 9 9 10 11 12 13 14 15 16 17 18 19 20 21 22 22 23 23 24 24 24 24 25 25 26 26 26 26 26 26 26 26 25 24 24 23 23 23 22 22 22 21 21 20 19 19 18 18 17 17 16 15 14 13 11 11 9 7
1 3 5 4 4 3 4 3 2 3 2 3 4 1 2 2 1 1 1 3 4 6 8 9 9 9 9 8 7 7 7 7 7 7 6 6 6 6 7 7 8 9 10 11 13 14 15 16 18 18 19 20 21 22 22 23 24 24 24 24 25 25 25 26 26 26 26 26 26 26 26 26 25 24 24 23 23 22 22 21 21 20 19 19 18 18 17 16 16 15 15 14 14 13 12 11 10
0 2 4 2 3 4 3 3 4 3 1 3 2 2 2 2 1 3 2 3 4 6 7 8 8 8 8 7 7 7 7 7 6 6 5 5 4 5 5 6 7 8 9 11 12 14 15 17 18 19 20 21 22 22 23 24 24 25 25 25 25 25 25 26 26 26 26 27 27 27 27 26 26 25 24 23 23 23 22 22 21 21 20 19 19 19 18 17 16 15 15 14 14 14 14 13 12
1 2 2 2 2 5 4 1 1 3 1 2 1 2 2 1 0 2 3 3 3 5 6 7 8 8 8 8 7 7 7 7 6 5 4 3 3 3 3 5 6 8 9 11 13 14 16 17 18 19 20 21 22 23 24 25 25 26 26 26 26 26 26 26 26 26 26 27 27 27 27 27 26 26 25 25 24 24 23 23 22 22 21 21 20 19 19 19 18 17 16 15 14 14 14 14 14
3 1 2 1 2 4 4 1 2 2 2 2 1 2 2 1 1 1 2 5 6 6 6 7 8 9 9 9 9 9 8 7 6 5 4 3 2 1 2 4 6 8 9 11 12 14 16 17 18 20 21 22 23 24 25 26 27 27 27 27 27 27 27 27 27 27 27 27 27 27 27 27 28 27 27 26 26 25 24 24 24 23 23 22 22 21 20 20 19 19 18 17 16 15 14 14 14
3 2 1 3 2 1 2 2 1 1 2 3 3 3 2 4 3 2 5 8 8 6 6 6 8 11 12 11 10 10 9 9 8 6 5 4 2 1 1 3 5 7 9 10 12 14 15 16 18 20 21 22 23 24 25 26 27 28 28 28 27 27 27 27 27 27 28 28 28 28 28 28 28 28 28 28 28 27 26 26 25 25 24 24 24 23 23 22 21 20 20 19 19 18 16 15 15
2 2 3 2 3 3 2 2 2 2 2 2 3 4 3 4 3 5 7 8 7 6 6 6 9 13 13 11 10 10 10 10 9 7 6 5 4 3 2 3 5 6 8 10 11 13 15 16 18 19 20 22 23 24 26 27 27 27 27 27 26 26 26 27 27 27 28 28 28 28 28 28 28 29 29 29 29 29 28 27 27 26 26 26 25 25 24 24 24 23 22 21 21 20 20 19 18
2 2 1 1 1 1 1 1 2 3 3 2 1 4 5 3 1 3 5 4 6 7 6 7 11 13 13 11 10 10 11 10 10 9 8 6 6 5 3 3 5 6 8 10 11 13 15 17 18 19 21 23 24 25 26 27 27 27 27 26 26 26 26 27 27 27 28 28 28 29 29 29 29 29 29 29 29 29 29 29 28 28 28 27 27 27 26 26 25 25 24 23 23 22 22 21 21
2 2 2 3 2 3 2 2 2 2 2 3 3 4 6 3 0 1 2 1 5 9 9 9 11 13 11 9 9 9 10 11 11 10 9 8 8 6 5 5 6 7 9 10 12 14 15 17 18 20 21 23 24 25 26 27 27 27 26 26 26 27 27 27 27 28 28 28 28 29 29 29 29 29 29 29 29 29 29 30 29 29 29 28 28 28 28 27 27 26 26 25 25 24 24 23 23
Wind_Direction
168 170 177 178 185 178 166 166 110 12 101 145 157 152 253 206 168 115 240 236 197 268 202 198 164 156 147 85 146 108 66 65 94 109 175 182 121 141 169 148 98 166 205 196 175 181 200 209 215 214 207 204 202 200 198 196 194 195 198 205 212 216 221 226 230 233 238 235 234 229 223 220 220 222 222 221 214 205 194 188 181 181 190 197 198 195 186 188 203 213 208 196 186 184 182 178 179
162 160 164 166 168 163 159 148 138 190 147 233 172 156 224 140 126 214 218 197 159 349 197 190 168 163 147 96 119 99 55 52 72 94 102 149 143 92 149 155 323 259 248 226 204 190 199 211 217 218 216 213 209 205 203 202 200 201 205 213 217 223 231 239 249 254 256 250 241 231 225 219 217 216 213 210 198 185 177 180 181 186 195 195 196 197 194 195 206 218 216 204 194 188 184 177 183
159 153 153 153 154 147 139 124 154 160 192 223 176 163 145 130 194 227 224 197 125 42 161 173 160 170 155 91 76 90 69 61 67 89 95 136 172 31 125 189 311 290 215 209 221 223 231 227 222 221 221 220 214 210 210 207 205 206 211 220 225 230 239 254 277 285 283 274 258 237 225 218 215 212 207 201 191 187 185 188 190 192 193 194 198 197 196 202 212 219 218 211 201 192 187 182 185
164 155 157 155 143 123 119 84 145 155 208 208 112 187 150 171 213 231 240 208 202 90 147 158 146 178 170 74 54 80 75 54 39 59 87 63 74 342 77 165 316 334 146 204 239 250 267 264 250 233 225 223 220 216 216 213 211 214 218 225 233 239 246 258 279 293 296 289 277 249 227 218 214 209 205 197 191 193 193 193 196 195 192 195 199 196 197 204 215 218 217 213 205 199 194 190 187
173 159 160 160 144 118 124 94 155 165 216 166 109 219 202 217 234 248 298 355 226 226 171 160 151 99 109 51 55 62 39 54 37 45 58 30 2 349 334 149 169 187 165 213 223 222 226 228 235 238 231 227 227 224 221 220 218 220 224 230 237 244 251 262 279 293 300 293 284 258 230 221 213 207 205 198 195 197 197 198 200 200 198 199 199 198 200 202 209 217 220 215 210 208 200 195 191
176 160 157 153 127 128 119 102 160 162 216 141 134 229 261 301 317 298 311 338 253 227 200 173 151 112 97 65 69 61 47 65 41 39 38 14 329 282 252 181 183 212 220 227 225 220 218 216 214 222 230 230 233 232 225 225 227 227 226 231 239 246 255 266 280 291 300 295 285 260 231 225 213 204 203 200 198 201 202 201 201 203 204 203 202 203 202 198 198 212 226 223 217 214 203 198 194
170 156 150 128 81 96 105 116 128 119 181 106 148 211 345 344 334 327 329 340 330 218 203 181 151 119 93 92 80 63 71 77 59 58 26 350 299 270 249 229 212 223 234 247 247 243 240 240 239 225 228 238 239 238 235 232 230 232 230 231 240 248 258 265 278 288 300 299 285 258 229 225 214 201 202 202 200 204 206 205 204 207 207 207 206 205 202 196 193 203 223 231 227 217 205 198 195
166 144 124 108 58 54 94 136 118 134 214 352 173 225 309 327 332 355 13 23 355 355 194 185 158 121 80 117 93 61 74 71 65 107 291 315 296 276 254 246 237 239 242 247 249 256 255 251 255 237 231 241 241 239 241 241 233 232 232 233 240 247 258 264 274 285 301 301 282 253 226 225 218 202 201 202 203 207 209 211 211 210 210 212 210 208 204 199 195 197 215 230 225 216 210 202 197
160 130 104 109 95 103 113 134 91 233 276 322 348 310 319 320 312 358 47 115 98 51 45 84 162 119 109 97 80 53 58 60 53 211 280 328 318 303 273 258 253 255 257 258 255 261 262 251 251 239 235 237 237 236 236 243 242 236 234 233 238 245 253 261 269 282 298 300 279 248 222 222 221 207 203 202 204 209 213 217 218 216 215 217 215 212 208 203 200 196 207 224 219 215 214 207 200
152 121 115 105 97 149 160 138 125 280 266 312 323 303 333 332 275 181 96 72 80 79 49 50 66 92 110 85 68 53 58 74 210 231 21 350 325 312 302 292 275 270 271 274 272 269 267 261 253 241 238 238 238 233 227 235 243 240 236 233 235 241 248 254 263 276 290 296 279 247 222 222 224 212 208 206 206 209 215 219 222 223 222 224 221 216 212 205 202 199 203 218 221 216 216 210 203
142 97 114 95 107 179 202 145 168 241 276 315 329 317 345 334 284 106 111 75 57 80 57 52 74 90 102 86 80 69 73 93 84 88 61 326 300 305 315 311 296 290 290 295 293 285 280 273 265 254 244 244 246 242 230 231 242 241 238 237 232 235 243 249 257 269 282 289 279 248 227 225 227 218 213 213 212 211 215 220 223 225 226 229 229 226 220 206 200 202 203 215 224 217 212 210 204
125 56 96 106 175 189 208 113 179 246 315 326 335 6 346 334 23 23 112 105 73 78 53 39 104 110 107 108 83 74 83 84 82 94 92 320 305 312 325 321 313 306 303 307 305 300 295 287 280 271 259 254 256 256 243 234 241 240 240 240 231 231 240 246 252 261 272 279 276 249 234 232 232 228 218 217 219 218 219 221 222 226 229 232 233 234 233 214 202 201 203 211 224 223 213 210 206
109 167 104 115 174 126 138 107 187 289 334 305 255 360 0 57 66 299 109 88 72 86 42 29 116 135 112 132 74 70 88 79 86 92 85 359 313 318 324 323 321 317 311 307 308 311 306 303 297 287 277 269 263 262 260 248 240 238 238 234 228 230 235 242 248 255 264 270 270 251 237 240 241 241 227 220 222 224 225 226 225 228 230 233 237 238 243 233 211 201 200 209 220 225 217 211 208
136 155 114 129 116 109 130 97 91 104 274 270 316 359 33 73 53 75 105 78 54 72 54 40 113 135 95 131 51 49 78 85 92 88 87 88 335 336 329 325 322 323 323 318 319 321 317 312 307 301 293 286 276 266 269 259 239 234 233 227 225 229 231 236 242 250 259 260 262 254 240 242 247 252 239 223 222 227 229 230 230 231 232 233 238 240 242 246 230 210 202 205 216 224 220 214 210
154 140 85 122 117 142 140 147 145 122 237 274 18 39 73 62 53 66 61 86 64 60 112 60 95 121 24 58 26 26 57 84 91 89 98 76 335 330 326 315 318 324 330 333 333 327 325 323 316 311 304 297 293 279 274 266 249 238 231 231 230 228 230 233 235 244 255 257 257 254 245 244 247 255 253 228 222 227 231 233 235 235 236 236 239 243 242 245 249 233 211 204 210 220 221 217 213
151 135 64 118 136 158 161 166 128 100 247 268 53 96 80 51 54 61 45 114 94 63 107 64 70 109 90 84 59 33 50 66 79 98 124 299 303 315 312 301 316 321 326 332 334 334 332 328 325 321 315 307 304 296 288 281 275 261 236 233 232 226 228 229 229 238 249 253 253 253 248 245 245 249 254 238 225 227 232 235 238 240 243 241 240 243 242 244 251 253 235 216 211 214 221 222 217
143 120 83 152 150 154 173 173 158 149 240 297 48 109 107 60 69 75 66 98 90 71 79 79 89 105 95 86 78 66 63 47 240 205 211 262 278 299 307 322 325 322 338 345 351 358 350 328 327 327 326 320 314 310 303 297 291 282 247 233 229 222 224 227 225 229 242 249 249 250 250 247 246 246 247 244 231 229 233 237 240 243 246 247 245 245 242 242 245 249 250 238 221 213 215 224 225
138 106 152 184 147 164 180 176 187 164 159 347 35 81 119 103 94 88 75 86 89 84 82 91 98 93 89 88 90 82 71 12 285 255 254 280 303 328 342 4 6 6 6 6 9 12 10 356 349 343 338 334 328 324 319 315 302 287 254 234 229 219 218 225 226 225 232 243 249 249 250 249 248 247 246 244 238 233 235 239 242 244 248 250 250 250 249 244 243 242 246 248 237 224 215 221 232
137 94 162 185 122 181 167 149 175 142 110 141 63 77 109 110 124 99 92 97 89 84 79 91 92 84 89 89 87 77 67 29 1 2 6 4 8 6 9 14 15 19 12 8 9 9 15 12 4 357 355 351 343 341 333 328 317 292 258 233 225 219 216 225 232 233 233 238 246 249 250 250 250 249 247 245 243 239 238 240 242 245 248 250 251 252 253 251 246 241 242 246 248 241 224 222 234
169 98 136 178 106 137 130 110 141 185 166 137 90 88 86 74 127 123 114 92 74 66 41 64 78 72 77 75 73 66 55 34 16 13 16 18 17 14 10 9 10 13 13 10 4 3 9 12 10 3 358 357 355 355 347 337 332 317 294 261 233 225 219 224 231 231 234 239 242 245 249 251 251 249 249 248 245 242 241 241 243 244 245 247 249 249 251 252 249 243 239 240 244 245 236 230 234
147 127 134 146 95 118 128 41 40 134 158 118 105 101 79 71 86 86 106 95 67 51 38 63 79 72 74 68 60 55 46 33 23 15 18 23 22 20 18 14 12 11 11 10 5 4 3 5 8 5 358 353 352 356 354 351 348 344 327 312 288 253 231 224 227 226 231 240 244 245 248 251 252 250 248 248 246 244 243 242 243 245 246 246 246 247 248 249 249 246 241 238 238 240 241 236 232
91 167 170 87 79 114 66 42 76 111 123 111 104 100 103 93 66 48 64 81 64 54 69 88 87 78 75 69 62 52 43 36 27 17 21 27 28 29 26 21 17 10 8 7 8 9 5 4 4 5 4 357 355 357 358 358 356 357 347 332 329 313 282 222 219 225 234 240 242 245 247 250 252 252 250 248 247 246 244 244 244 245 246 247 246 245 246 247 248 247 245 243 240 239 240 239 234
106 309 319 342 324 215 35 57 84 97 111 110 113 114 119 103 66 53 68 75 92 97 96 93 86 81 76 73 71 58 51 47 40 34 30 29 26 25 21 17 15 12 9 9 8 7 4 3 3 5 6 0 358 360 359 358 357 0 358 345 337 331 334 300 215 220 232 237 235 237 243 246 249 252 253 250 248 247 246 245 245 246 246 247 248 247 246 247 247 246 245 244 242 240 239 243 241
115 279 315 324 302 254 270 345 17 1 32 47 128 122 102 101 87 70 76 85 103 101 97 92 87 85 80 74 67 59 57 54 52 47 40 35 30 24 18 14 14 12 9 8 7 5 2 359 360 1 1 359 352 352 353 353 353 354 354 348 343 339 337 341 318 246 251 258 240 232 235 240 244 249 253 254 251 248 247 246 246 246 247 247 247 248 248 247 247 245 243 241 241 240 238 240 245
132 212 294 306 309 265 263 266 270 302 321 119 109 92 86 106 106 84 83 98 103 100 95 90 89 86 76 67 62 59 59 56 53 48 41 39 35 28 18 12 9 5 2 3 2 1 0 360 357 353 353 355 349 346 348 348 349 346 344 341 340 345 338 337 341 322 306 301 285 250 238 238 240 242 247 254 255 252 248 247 247 246 246 247 247 248 248 248 246 244 242 240 238 239 238 238 243
208 207 242 264 6 354 299 263 256 277 248 147 95 90 106 109 99 80 89 106 103 102 94 87 86 77 66 61 59 57 54 53 48 41 36 32 28 21 16 10 3 359 360 358 355 355 357 357 354 352 351 350 348 344 345 346 348 345 340 340 338 340 337 334 335 327 318 309 301 292 270 257 250 244 241 244 250 253 251 248 247 246 246 247 248 249 250 249 247 243 241 240 238 237 237 239 241
196 196 216 245 308 330 320 268 248 243 204 166 116 118 114 80 73 88 105 109 105 104 90 82 81 69 64 60 58 54 49 47 44 39 31 23 17 12 10 7 2 359 358 352 351 353 354 352 351 351 349 349 349 345 345 347 349 349 342 338 337 336 333 330 327 321 316 313 311 308 302 293 282 269 255 246 244 247 249 248 247 247 247 248 249 251 252 252 250 245 241 239 238 237 237 238 239
158 167 188 284 308 302 263 255 220 178 200 175 131 122 61 29 48 103 117 116 102 99 85 77 76 68 64 60 56 53 47 43 37 29 23 20 16 13 10 7 4 2 358 354 353 352 350 349 349 348 348 350 352 349 350 352 352 354 347 340 338 338 336 331 324 318 313 313 317 317 315 309 300 292 279 265 252 246 246 245 246 247 247 248 250 252 255 256 256 252 245 240 238 238 238 238 239
128 136 120 329 358 331 237 236 191 172 199 167 135 113 32 32 63 99 110 111 96 90 78 72 73 68 64 59 55 52 46 40 30 24 23 21 17 14 12 9 6 5 2 360 355 350 349 351 353 354 353 352 353 355 355 357 359 360 357 351 347 346 344 339 332 327 323 318 318 320 322 320 309 299 288 279 266 256 249 243 244 248 249 251 252 254 256 259 261 260 253 244 239 239 238 238 239
116 108 100 12 18 340 244 231 174 171 196 163 149 143 52 59 72 96 102 105 95 80 67 66 70 67 64 59 55 51 45 38 30 27 25 21 15 9 8 8 6 7 6 3 1 360 359 358 359 360 360 357 354 356 358 359 360 1 5 3 358 355 352 350 345 338 333 330 329 328 328 326 319 309 296 287 276 268 260 247 245 248 249 251 253 255 257 260 261 263 262 253 243 239 238 239 240
114 94 71 81 85 284 284 349 159 165 238 173 167 211 122 72 39 53 86 118 101 78 61 61 66 65 64 60 56 53 47 42 36 33 28 21 16 7 4 5 7 10 10 9 10 11 9 5 3 2 2 1 356 351 354 357 356 356 2 3 358 353 351 352 349 344 341 338 338 336 334 332 326 319 305 293 284 276 267 249 241 241 243 246 249 255 260 262 264 264 264 261 250 242 238 238 239
35 128 277 10 149 264 312 3 164 167 40 104 154 187 119 74 25 33 74 113 102 83 66 60 62 61 61 59 57 55 51 48 42 35 29 22 18 12 8 10 12 13 13 14 15 14 12 9 7 5 4 3 360 351 349 354 355 355 359 2 360 355 351 347 344 344 343 340 339 338 340 340 333 326 310 294 284 268 244 226 224 229 236 242 246 253 257 259 262 264 263 263 258 247 240 238 238
353 144 211 243 160 256 327 344 284 195 95 44 63 142 121 75 35 36 66 95 94 83 66 58 59 57 58 56 55 53 51 49 43 37 31 25 22 19 16 17 18 17 16 16 15 13 13 13 12 10 7 3 2 355 345 347 352 355 359 1 1 359 356 352 349 348 346 345 345 347 352 355 354 347 323 300 264 217 201 198 201 212 227 235 240 244 246 250 251 254 256 258 261 254 244 240 239
295 56 132 198 167 168 289 293 332 40 112 47 44 94 107 81 51 41 54 79 84 74 62 58 56 55 56 54 52 49 45 44 40 37 32 27 27 25 24 24 23 21 19 18 16 16 16 17 18 17 11 4 3 1 348 336 339 348 356 359 1 1 2 5 3 357 1 10 11 13 20 26 33 35 30 43 68 94 136 149 146 147 199 223 232 240 247 255 255 249 245 243 251 257 251 245 243
172 156 142 173 163 156 234 249 318 34 71 85 76 94 103 83 59 45 46 64 74 69 63 60 55 55 54 52 52 47 45 45 41 37 33 31 29 27 27 27 26 24 23 22 20 20 20 20 21 22 21 16 11 6 1 347 332 333 345 352 352 352 358 5 10 18 36 46 45 45 46 47 51 52 52 54 55 53 56 74 92 104 131 201 228 243 254 268 274 268 256 239 236 244 250 250 249
162 164 150 156 164 212 240 249 288 62 83 63 80 113 110 80 54 47 47 57 67 64 61 58 52 54 54 53 52 50 49 48 45 42 38 34 31 30 29 29 30 29 27 26 24 23 23 22 21 23 25 26 23 16 13 7 349 334 337 342 341 347 357 4 18 42 55 54 47 46 45 43 42 42 41 39 40 38 34 39 51 68 82 100 157 248 292 320 328 308 291 278 231 222 232 239 244
126 121 114 132 163 227 252 264 315 64 97 38 82 106 91 70 50 40 49 56 56 54 55 54 49 53 54 55 55 53 53 51 49 47 43 41 37 35 33 33 34 33 32 29 26 27 27 25 23 24 25 24 24 25 23 15 8 2 355 352 353 0 10 15 25 35 41 39 30 28 30 31 31 29 27 22 19 20 19 17 22 36 50 56 60 56 40 19 16 18 360 335 356 10 283 240 238
83 106 106 67 181 227 247 194 338 3 92 90 121 105 73 66 56 36 52 59 50 46 54 53 49 52 55 56 57 58 59 57 56 52 49 47 44 41 39 38 37 34 35 34 32 33 31 30 29 29 28 25 25 26 24 20 16 14 10 8 6 4 5 8 17 18 14 13 9 10 13 15 17 18 19 15 8 7 11 8 5 12 25 34 38 40 42 37 27 25 25 28 22 16 16 9 345
83 97 110 98 242 245 282 341 7 15 85 150 166 120 76 70 67 53 59 70 67 61 64 63 58 55 53 56 58 61 63 60 59 56 53 51 49 48 45 43 43 41 41 40 39 38 35 34 34 34 32 31 32 30 28 27 24 18 14 15 13 11 9 7 14 15 7 2 2 2 1 1 3 3 7 9 9 11 11 9 5 3 5 13 19 19 22 24 23 22 20 21 22 25 25 18 13
94 106 124 200 262 133 253 327 26 27 63 151 158 121 101 112 87 70 70 86 87 77 73 69 67 64 59 60 62 63 63 62 61 58 56 55 54 52 49 48 48 46 45 44 42 40 38 38 37 37 36 35 37 36 36 37 36 28 24 26 23 23 24 19 18 14 7 5 4 2 359 360 0 358 359 0 4 13 13 9 6 2 359 2 6 6 7 7 10 12 11 10 8 10 20 22 18
20 151 154 177 210 196 215 310 88 44 40 126 135 100 209 168 162 122 98 104 93 82 78 68 65 70 70 68 67 65 65 65 64 63 61 59 58 57 54 53 50 48 47 45 44 43 42 41 40 40 39 38 38 38 37 37 39 34 30 33 24 18 18 10 5 5 7 10 7 4 4 6 6 2 359 357 357 2 7 9 6 3 359 358 357 357 360 1 359 356 353 358 1 360 5 9 14
332 220 180 177 187 203 199 112 105 45 5 182 146 147 265 169 176 163 132 126 96 75 70 63 57 64 69 70 69 70 70 70 69 68 68 66 65 64 61 58 53 52 51 50 48 47 46 44 42 41 41 41 40 39 36 32 29 25 21 22 19 17 20 20 18 15 15 16 15 13 14 14 12 8 5 1 359 358 359 2 359 358 354 350 350 348 347 345 343 340 335 337 344 347 346 342 349
182 233 166 160 150 153 161 143 125 75 264 225 157 185 268 261 194 162 145 137 104 82 67 60 51 54 63 69 73 77 78 78 78 76 74 72 70 67 64 61 58 56 55 54 52 49 48 46 42 41 41 40 40 39 37 34 32 31 29 30 31 31 34 36 33 29 27 25 22 20 19 18 16 14 12 8 5 3 2 1 357 353 351 346 341 332 326 324 325 327 323 322 326 328 327 325 329
176 219 124 131 138 154 173 147 152 215 261 314 169 168 272 281 224 151 145 134 100 89 71 59 56 54 62 72 80 85 86 87 85 83 80 76 73 70 67 65 62 61 59 55 54 51 48 46 44 42 41 41 40 38 36 35 36 37 35 36 38 37 38 39 36 34 32 29 26 23 21 20 18 18 17 15 13 8 5 4 2 359 356 350 342 331 322 317 309 304 303 305 308 311 313 317 320
185 185 118 120 133 147 135 120 148 276 13 286 231 159 293 269 218 127 158 174 185 154 138 129 95 74 77 86 90 94 95 96 94 91 87 81 78 74 71 70 66 64 61 56 54 52 49 47 45 43 42 42 40 37 36 36 36 36 35 36 38 38 37 36 34 32 32 30 28 26 24 22 20 19 19 19 17 15 12 9 7 3 2 0 356 350 340 328 312 297 291 289 293 298 303 308 311
152 128 88 66 68 72 70 100 122 53 9 235 214 165 187 263 204 144 187 221 211 163 160 177 137 112 107 103 104 105 103 104 102 98 93 87 83 79 75 72 69 64 61 57 54 52 49 46 43 41 41 40 39 36 35 34 32 32 32 32 33 33 31 29 26 25 25 26 26 26 25 24 22 20 20 20 19 19 18 15 12 7 5 3 359 355 350 343 337 325 311 295 287 287 289 295 300
138 108 61 41 30 35 43 48 83 74 273 262 241 188 165 254 243 149 161 194 141 146 156 168 153 139 130 124 122 119 112 111 109 104 100 93 87 83 78 74 69 64 61 57 53 49 46 43 40 39 38 36 35 33 31 30 28 27 27 26 25 25 23 20 18 18 18 18 19 22 22 21 21 20 20 19 18 19 20 18 17 14 10 6 359 355 353 351 350 347 340 322 298 282 276 277 280
90 90 79 64 357 9 24 355 48 132 247 280 310 265 162 217 246 93 97 102 116 152 165 165 159 154 151 145 138 131 123 120 117 110 105 99 93 87 81 75 70 65 60 54 50 45 42 41 38 36 34 32 30 28 26 24 23 23 22 21 19 18 17 16 14 14 14 14 14 15 15 14 15 16 15 15 16 16 17 17 17 16 14 11 6 2 359 356 351 348 346 340 326 303 283 273 269
76 87 89 96 359 8 11 322 65 216 246 276 315 331 169 230 229 112 114 87 38 79 139 159 160 157 159 156 152 148 139 132 126 119 113 106 98 88 79 73 65 60 54 48 46 41 38 37 34 31 29 27 26 24 22 20 18 18 17 15 15 14 13 12 11 11 10 9 9 8 8 8 8 8 8 9 11 12 10 11 12 12 13 13 13 10 6 2 355 349 346 342 338 328 316 302 284
105 131 117 129 129 105 229 242 306 262 263 304 316 332 216 255 104 132 116 75 62 91 126 155 162 162 165 162 164 163 148 142 135 126 119 107 96 85 74 67 59 54 48 43 41 37 34 32 30 28 26 24 22 20 18 16 15 14 12 11 10 9 8 7 6 6 6 5 4 4 3 3 3 3 3 3 4 5 5 5 5 5 5 6 8 10 10 7 3 358 353 347 341 337 332 327 318
105 150 123 137 156 157 201 199 196 246 284 320 305 273 206 223 137 211 193 89 108 121 132 149 158 165 166 163 171 171 158 152 145 134 123 108 95 82 70 61 55 50 45 40 37 33 30 27 25 23 21 19 17 16 14 12 11 10 8 7 5 4 4 3 2 1 0 360 359 359 358 358 358 357 358 358 356 356 356 357 357 357 356 357 358 360 2 4 4 3 1 357 351 344 338 331 324
306 126 104 129 184 142 141 183 176 169 338 316 264 229 214 147 144 236 204 132 130 140 144 149 157 166 166 168 183 185 175 167 158 149 133 115 97 81 67 56 50 45 40 36 32 29 25 22 20 18 16 14 12 11 9 8 7 5 3 2 1 360 359 357 357 356 355 355 354 353 352 352 352 351 350 350 350 349 348 348 348 348 347 348 349 350 350 352 355 357 358 358 356 351 346 340 333
130 98 152 212 171 115 112 209 140 109 218 264 206 247 307 82 204 240 184 175 174 166 165 166 169 174 176 186 202 201 189 180 176 168 152 135 118 88 63 50 43 37 33 29 24 22 20 17 15 13 11 9 7 5 4 2 1 359 358 357 356 355 354 353 352 352 351 350 349 348 347 346 345 345 344 344 344 344 342 341 340 339 339 340 340 341 342 343 344 346 347 349 350 351 349 345 341
114 152 211 184 93 91 101 182 12 55 244 265 214 244 270 220 248 299 196 206 206 192 184 183 183 187 196 207 215 212 199 193 195 189 181 175 158 108 55 42 35 30 27 23 20 17 14 11 9 7 5 4 2 1 359 357 355 354 353 352 351 350 349 348 348 347 346 345 344 343 342 342 341 340 339 339 338 337 336 336 335 334 333 333 333 333 334 335 336 336 337 339 340 342 343 341 340
113 184 171 95 131 145 92 136 175 184 236 280 306 297 255 212 201 188 206 207 201 192 181 183 192 198 207 216 220 218 208 205 208 206 207 210 212 243 3 22 22 22 18 15 14 10 7 5 3 2 360 359 358 356 355 353 352 351 350 349 348 347 346 344 343 342 342 341 340 339 338 338 337 336 335 335 334 333 332 331 331 330 329 329 328 328 327 328 328 329 329 329 330 331 332 332 333
35 33 7 43 135 164 152 144 156 165 196 262 312 322 270 234 208 179 193 195 184 178 178 190 202 206 213 219 221 221 216 214 219 221 224 228 237 259 305 354 1 6 5 4 4 0 359 357 356 355 354 353 352 351 350 350 349 348 348 346 346 345 344 343 341 340 339 338 337 336 335 335 334 333 332 331 331 330 330 329 329 328 327 325 325 324 323 323 323 324 323 323 323 323 324 324 325
10 46 349 345 85 125 166 70 84 122 155 192 261 290 265 252 205 160 171 173 174 179 187 198 204 210 218 220 220 221 220 222 228 230 234 238 246 262 289 327 341 346 350 352 351 351 350 349 348 348 347 346 346 345 345 344 344 344 344 343 343 343 343 342 341 340 338 337 336 334 333 332 332 331 330 329 328 328 328 328 327 327 326 325 323 322 321 320 320 320 319 319 319 318 318 318 319
153 146 197 173 126 118 131 298 321 99 138 173 168 265 271 259 64 104 121 154 187 184 186 195 205 211 215 215 216 219 221 227 234 238 241 245 252 265 281 303 321 328 336 340 340 341 342 341 342 342 342 342 341 341 340 339 339 339 339 339 340 340 340 339 339 338 337 336 335 334 332 331 330 329 329 328 327 326 326 325 325 325 325 324 323 322 321 319 318 317 316 316 316 316 316 315 315